Torna al catalogo

EKRAN 21

AttivoComunicazioniGEO
NORAD 26736·PAYLOAD·🇷🇺 Russia

Lanciato Apr 7, 2001 da Baikonur Cosmodrome

Loading…

TLE

AggiornatoSource: Space-Track

Epoca: Sep 14, 2026, 21:47 UTC

1 26736U 01014A   26257.90787402  .00000039  00000-0  00000-0 0  9991
2 26736  14.7087  12.4101 0028165  78.1469 110.6342  0.99584130 92826

Traccia EKRAN 21 in tempo reale con AllMySat

Download on the App Store